Flag for Russia Weather past 2 weeks in Yuzhno-Sakhalinsk, Russia

Now
32 °F

Scattered clouds.


Feels Like: 22 °F
Forecast: 13 / 31 °F
Wind: 13 mph from Northeast

Location: Yuzhno Airport-Sakhalinsk

Current Time: Mar 4, 2015 at 3:30:19 PM

Latest Report: Mar 4, 2015 at 3:00 PM


Visibility: N/A

Pressure: 29.95 "Hg

Humidity: 69%

Dew point: 23 °F

Location of Yuzhno-SakhalinskLocation

Historic Weather in Yuzhno-Sakhalinsk — Graph

°F

Yuzhno-Sakhalinsk temperature yesterday

Maximum temperature yesterday: 34 °F (at 2:00 PM)
Minimum temperature yesterday: 16 °F (at 11:30 PM)
Average temperature yesterday: 27 °F

Past Weeks' High & Low Weather Summary

 TemperatureHumidityPressure
High37 °F (Feb 17, 2:30 PM)100% (Feb 17, 7:30 PM)30.30 "Hg (Feb 17, 7:30 PM)
Low-11 °F (Feb 26, 4:00 AM)47% (Feb 20, 2:00 PM)29.33 "Hg (Feb 24, 5:00 AM)
Average25 °F84%29.96 "Hg
* Reported Feb 17 2:00 PM — Mar 4 2:30 PM, Yuzhno-Sakhalinsk, Weather by CustomWeather, © 2015

Note: Actual official high and low records may vary slightly from our data, if they occured in-between our weather recording intervals... More about our weather records

Advertising

Yuzhno-Sakhalinsk weather history for previous 24 hours

 ConditionsComfort  
Time TempWeatherWind HumidityBarometerVisibility
2:30 PM
Wed, Mar 4
32 °FScattered clouds.10 mph69%29.95 "HgN/A
2:00 PM32 °FScattered clouds.10 mph64%29.95 "HgN/A
1:30 PM32 °FScattered clouds.8 mph69%29.98 "HgN/A
1:00 PM32 °FScattered clouds.10 mph69%30.01 "HgN/A
12:30 PM30 °FScattered clouds.3 mph69%30.01 "HgN/A
12:00 PM28 °FScattered clouds.6 mph74%30.04 "HgN/A
11:30 AM25 °FScattered clouds.6 mph80%30.04 "HgN/A
11:00 AM25 °FScattered clouds.8 mph74%30.07 "HgN/A
10:30 AM23 °FScattered clouds.10 mph80%30.07 "HgN/A
10:00 AM21 °FScattered clouds.8 mph80%30.07 "HgN/A
9:30 AM19 °FPartly sunny.6 mph86%30.09 "HgN/A
9:00 AM19 °FSnow flurries. Partly sunny.8 mph86%30.09 "HgN/A
8:30 AM18 °FSnow flurries. Partly sunny.8 mph93%30.09 "Hg5 mi
8:00 AM18 °FPartly sunny.8 mph86%30.09 "Hg5 mi
7:30 AM16 °FPartly sunny.8 mph93%30.09 "Hg5 mi
7:00 AM16 °FSnow flurries. Passing clouds.6 mph86%30.09 "Hg5 mi
6:30 AM14 °FSnow flurries. Passing clouds.6 mph92%30.09 "HgN/A
5:30 AM16 °FPassing clouds.No wind86%30.09 "HgN/A
5:00 AM16 °FPassing clouds.3 mph86%30.09 "HgN/A
4:00 AM14 °FPassing clouds.6 mph92%30.09 "Hg5 mi
3:00 AM14 °FPassing clouds.3 mph92%30.09 "Hg5 mi
2:00 AM12 °FPassing clouds.6 mph92%30.09 "Hg3 mi
1:00 AM14 °FPassing clouds.No wind92%30.07 "Hg3 mi
12:00 AM14 °FPassing clouds.1 mph92%30.07 "Hg4 mi
11:30 PM
Tue, Mar 3
16 °FPassing clouds.No wind86%30.07 "Hg4 mi
11:00 PM18 °FPassing clouds.1 mph86%30.07 "Hg4 mi
10:30 PM19 °FPassing clouds.No wind93%30.07 "Hg4 mi
10:00 PM19 °FPassing clouds.No wind93%30.07 "Hg4 mi
9:30 PM18 °FPassing clouds.No wind93%30.04 "HgN/A
9:00 PM18 °FPassing clouds.No wind93%30.04 "HgN/A
8:30 PM19 °FPassing clouds.1 mph86%30.04 "HgN/A
8:00 PM21 °FPassing clouds.No wind80%30.04 "HgN/A
7:30 PM23 °FPassing clouds.No wind80%30.01 "HgN/A
7:00 PM23 °FPassing clouds.No wind80%30.01 "HgN/A
6:30 PM25 °FPassing clouds.3 mph69%30.01 "HgN/A
6:00 PM27 °FScattered clouds.3 mph69%29.98 "HgN/A
5:30 PM28 °FScattered clouds.8 mph64%29.98 "HgN/A
5:00 PM30 °FPassing clouds.8 mph59%29.98 "HgN/A
4:30 PM32 °FPassing clouds.10 mph55%29.95 "HgN/A
4:00 PM32 °FPassing clouds.15 mph51%29.95 "HgN/A
3:30 PM32 °FPassing clouds.13 mph51%29.95 "HgN/A
3:00 PM32 °FScattered clouds.17 mph55%29.92 "HgN/A
Weather by CustomWeather, © 2015

See weather overviewHow to use our weather pages